Regional Weather Roundup
Issued by NWS

Home | Current Version | Previous Version | Graphics & Text | Print | Product List | Glossary On
Versions: 1 2 3 4 5 6 7 8 9 10 11 12 13 14 15 16 17 18 19 20 21 22 23 24 25 26 27 28 29 30 31 32 33 34 35 36 37 38 39 40 41 42 43 44 45 46 47 48 49 50
000
ASUS43 KLSX 181807
RWRMO

WEATHER SUMMARY FOR MISSOURI
NATIONAL WEATHER SERVICE SPRINGFIELD MO
1200 PM CST THU DEC 18 2014

NOTE: "FAIR" INDICATES FEW OR NO CLOUDS BELOW 12,000 FEET WITH NO
       SIGNIFICANT WEATHER AND/OR OBSTRUCTIONS TO VISIBILITY.
       CURRENT SKY AND/OR WEATHER CONDITIONS ARE NOT AVAILABLE FOR
       CHILLICOTHE AND FARMINGTON.

MOZ001>031-035>038-043-044-053-054-181900-
...NORTHERN AND WESTERN MISSOURI...

CITY           SKY/WX    TMP DP  RH WIND       PRES   REMARKS
KANSAS CTY INT FLURRIES  31  28  89 E7        30.22F WCI  24
6HR MIN TEMP:  28; 6HR MAX TEMP:  31; 6HR PCP:  0.03;

KANSAS C DTWN  LGT SNOW  32  28  85 NE8       30.23F FOG     WCI  25
6HR MIN TEMP:  29; 6HR MAX TEMP:  32; 6HR PCP:  0.01;

LEE`S SUMMIT   LGT SNOW  32  29  88 E8        30.22F FOG     WCI  25
6HR MIN TEMP:  29; 6HR MAX TEMP:  32; 6HR PCP:  0.02;

ST JOSEPH      FLURRIES  30  27  88 E6        30.25F WCI  24
6HR MIN TEMP:  28; 6HR MAX TEMP:  30; 6HR PCP:  0.04;

CHILLICOTHE      N/A     30  26  85 E5        30.27F WCI  25
6HR MIN TEMP:  27; 6HR MAX TEMP:  30; 6HR PCP:  0.07;

KIRKSVILLE     CLOUDY    28  25  88 SE6       30.25F WCI  22
6HR MIN TEMP:  25; 6HR MAX TEMP:  28; 6HR PCP:  0.06;


$$
MOZ066>068-077>081-088>096-101>105-181900-
...SOUTHWEST MISSOURI...

CITY           SKY/WX    TMP DP  RH WIND       PRES   REMARKS
SPRINGFIELD    CLOUDY    36  34  92 S8        30.17F WCI  30
6HR MIN TEMP:  33; 6HR MAX TEMP:  36; 6HR PCP: TRACE;

JOPLIN         CLOUDY    39  37  92 SW5       30.18F
6HR MIN TEMP:  35; 6HR MAX TEMP:  39;


$$
MOZ032>034-039>042-045>050-055>058-069>072-181900-
...CENTRAL MISSOURI...

CITY           SKY/WX    TMP DP  RH WIND       PRES   REMARKS
COLUMBIA       LGT SNOW  32  29  88 E8        30.22F FOG     WCI  25
6HR MIN TEMP:  28; 6HR MAX TEMP:  32; 6HR PCP:  0.06;

JEFFERSON CITY LGT SNOW  33  30  88 E6        30.25F FOG     WCI  28
6HR MIN TEMP:  30; 6HR MAX TEMP:  33; 6HR PCP:  0.04;

ROLLA          LGT SNOW  32  30  92 E6        30.19F FOG     WCI  26
6HR MIN TEMP:  30; 6HR MAX TEMP:  32; 6HR PCP:  0.03;

SEDALIA        LGT SNOW  33  30  88 E7        30.22F FOG     WCI  27
6HR MIN TEMP:  31; 6HR MAX TEMP:  33; 6HR PCP:  0.03;

WHITEMAN AFB   CLOUDY    32  30  93 E3        30.21F FOG
WARRENSBURG    LGT SNOW  32  30  93 NE5       30.23F WCI  27
OSAGE BEACH    CLOUDY    34  30  86 E6        30.20F WCI  29

$$
MOZ051-052-059>065-181900-
...EAST CENTRAL MISSOURI...

CITY           SKY/WX    TMP DP  RH WIND       PRES   REMARKS
ST LOUIS INTL  FLURRIES  33  26  75 E3        30.27F
6HR MIN TEMP:  30; 6HR MAX TEMP:  33; 6HR PCP:  0.01;

SPIRIT OF STL  LGT SNOW  31  28  89 NE6       30.26F FOG     WCI  25
6HR MIN TEMP:  28; 6HR MAX TEMP:  31; 6HR PCP:  0.07;

ST CHARLES     CLOUDY    32  25  75 SE3       30.27F
6HR MIN TEMP:  29; 6HR MAX TEMP:  32; 6HR PCP: TRACE;


$$
MOZ072>076-082>087-097>100-106>115-181900-
...SOUTH CENTRAL AND SOUTHEAST MISSOURI...

CITY           SKY/WX    TMP DP  RH WIND       PRES   REMARKS
CAPE GIRARDEAU CLOUDY    35  33  92 E6        30.26F FOG
6HR MIN TEMP:  33; 6HR MAX TEMP:  35;

FARMINGTON     CLOUDY    34  32  93 N5        30.24F WCI  30
6HR MIN TEMP:  30; 6HR MAX TEMP:  34; 6HR PCP:  0.02;

POPLAR BLUFF   CLOUDY    37  32  82 E5        30.25F HAZE
6HR MIN TEMP:  34; 6HR MAX TEMP:  37;

WEST PLAINS    CLOUDY    35  32  88 SE6       30.20F
6HR MIN TEMP:  32; 6HR MAX TEMP:  35;


$$


USA.gov is the U.S. government's official web portal to all federal, state and local government web resources and services.